STARLINK-3906 (52585 NORAD) Tracking and Keplerian Element Data

This shows tracking and keplerian element data for the satellite.

Feedback or suggestion? Click here.




ElementValue
Catalog52585
NameSTARLINK-3906
Epoch Orbit2139
Epoch Day269.37955865
Epoch Year2022
RAAN16.8711
Inclination53.2212
Eccentricity0.0001518
Argument of Perigee52.2446
Mean Anonmoly307.8683
Mean Motion15.08834146
Decay Rate7E-08
L11 52585U 22051BB 22269.37955865 .00000007 00000+0 18530-4 0 9991
L22 52585 53.2212 16.8711 0001518 52.2446 307.8683 15.08834146 21394

Live tracking and technical data element details for STARLINK-3906 (NORAD 52585). STARLINK-3906 can be tracked NOW for your location showing map with azimuth and elevation plus other details from your city location.

Track the satellite on the map from your city or location and see movement details for azimuth, elevation, latitude, longitude, range, height, and movement on the map or in text.







IsCatalogInMostPopularTable: catalog: 52585, numindb: 11
Update: records affected: 1



GetName: 52585 STARLINK-3906

Hit Count: updated at: Thu, 06 Oct 2022 05:23:03 GMT